Location: Hastringsfeld
(50.9620°N, 10.4787°E)
Time: 17:05:14
(UTC+00:00)

CZ-2C R/B - Pass Details

Date: 26 September 2023
Orbit: 783 x 869 km, 98.3° (Epoch: 07 December)

Event Time Altitude Azimuth Distance (km) Brightness Sun altitude
Exits shadow 01:28:01 48° 58° (ENE) 1,026 3.4 -32.2°
Drops below altitude 10° 01:32:49 10° 354° (N) 2,388 5.5 -31.7°
Sets 01:35:15 0° 349° (N) 3,334 6.2 -31.4°
